Location: Strada George Coșbuc
(47.6577°N, 23.5639°E)
Time: 07:51:54
(UTC+03:00)

ISS - Pass Details

Date: 12 September 2017
Orbit: 401 x 407 km, 51.6° (Epoch: 24 September)

Event Time Altitude Azimuth Distance (km) Brightness Sun altitude
Exits shadow 04:11:14 25° 57° (ENE) 872 -1.5 -26.3°
Drops below altitude 10° 04:12:47 10° 64° (ENE) 1,474 -0.1 -26.1°
Sets 04:14:53 0° 68° (ENE) 2,337 1.2 -25.9°
